Location: Kapla
(46.2483°N, 15.0094°E)
Time: 15:00:22
(UTC+00:00)

Okean 1 - Pass Details

Date: 03 March 2021
Orbit: 538 x 554 km, 82.5° (Epoch: 19 April)

Event Time Altitude Azimuth Distance (km) Brightness Sun altitude
Rises 17:54:25 0° 348° (NNW) 2,732 7.1 -12.1°
Reaches altitude 10° 17:56:35 10° 347° (NNW) 1,836 6.2 -12.4°
Maximum altitude 18:00:36 70° 264° (W) 592 3.6 -13.1°
Drops below altitude 10° 18:04:37 10° 181° (S) 1,828 5.9 -13.8°
Sets 18:06:46 0° 179° (S) 2,719 6.8 -14.2°
